Regional Weather Roundup
Issued by NWS Grand Forks, ND

Home | Current Version | Previous Version | Text Only | Print | Product List | Glossary Off
Versions: 1 2 3 4 5 6 7 8 9 10 11 12 13 14 15 16 17 18 19 20 21 22 23 24 25 26 27 28 29 30 31 32 33 34 35 36 37 38 39 40 41 42 43 44 45 46 47 48 49 50

399
ASUS43 KFGF 261710
RWRFGF
PRAIRIE TO PINES  WEATHER ROUNDUP
NATIONAL WEATHER SERVICE EASTERN NORTH DAKOTA/GRAND FORKS ND
1200 PM CDT WED APR 26 2017

 **SATELLITE DATA USED TO AUGMENT SKY COVER AT AUTOMATED STATIONS**
 *****  WEATHER ACROSS EASTERN NORTH DAKOTA  *****

CITY           SKY/WX    TMP DP  RH WIND       PRES   REMARKS
GRAND FORKS    FLURRIES  31  25  78 NE20      29.82F WCI  19
GRAND FRKS AFB FLURRIES  28  23  80 NE21G28   29.82F WCI  15
DEVILS LAKE    CLOUDY    30  24  78 NE18G26   29.85F WCI  18
FARGO          LGT SNOW  29  26  89 N17       29.75F FOG     WCI  17
WAHPETON ARPT  CLOUDY    30  27  86 N15G25    29.71S WCI  19
$$

 ***** WEATHER ACROSS CENTRAL AND WESTERN NORTH DAKOTA  *****

CITY           SKY/WX    TMP DP  RH WIND       PRES   REMARKS
BISMARCK       PTSUNNY   39  25  57 NE17      29.84F
MINOT          FAIR      39  22  50 N18       29.87F
JAMESTOWN      CLOUDY    29  25  85 N18       29.79F WCI  16
MINOT AFB      FAIR      39  21  47 N16G25    29.87F
GARRISON         N/A     38  22  52 N13G23    29.85F
WILLISTON      FAIR      42  22  44 E7        29.91F
DICKINSON      FAIR      39  21  48 VRB5G18   29.83F
HETTINGER      CLOUDY    37  24  59 N14G21    29.85F
$$

 *****  OTHER AIRPORT OBSERVATIONS IN OUR AREA  *****

CITY           SKY/WX    TMP DP  RH WIND       PRES   REMARKS
WALHALLA       NOT AVBL
GRAFTON AIRPOR CLOUDY    30  25  80 NE14      29.87F WCI  20
VALLEY CITY AR LGT RAIN  28  28 100 N20       29.79S WCI  15
CANDO          NOT AVBL
CAVALIER APRT  CLOUDY    30  23  74 N17       29.87F WCI  18
GWINNER        CLOUDY    30  27  86 MISG      29.75S FOG
SHEYENNE NWR     N/A     29  27  92 N12       29.95S WCI  19
ROLLA          FAIR      36  25  64 N24       29.86F
 ***** THE ABOVE OBSERVATIONS ARE NON NWS ARE NOT QUALITY
       CONTROLLED AND MAY MIS-REPORT RAIN FOR SNOW...
$$

  *****  WEATHER ACROSS NORTHERN MINNESOTA  *****

CITY           SKY/WX    TMP DP  RH WIND       PRES   REMARKS
FLAG ISLAND    CLOUDY    28  21  74 NE24G32   29.85F WCI  14
WARROAD        LGT SNOW  28  25  86 N18       29.83F WCI  16
ROSEAU         CLOUDY    28  23  80 NE21      29.82F WCI  15
HALLOCK        CLOUDY    30  23  74 NE15      29.86F WCI  19
THF RVR FALLS  FLURRIES  29  24  82 N17       29.77F WCI  17
BAUDETTE       LGT SNOW  28  23  81 N16G22    29.78F WCI  16
WASKISH        LGT SNOW  27  23  86 NE13G23   29.74S WCI  16
CROOKSTON      FLURRIES  28  25  86 NE17G23   29.80F WCI  16
STEPHEN NDAWN    N/A     28  23  80 NE20        N/A  WCI  15
GREENBUSH NDAW   N/A     28  25  86 NE17        N/A  WCI  16
$$
  *****  WEATHER ACROSS CENTRAL AND WEST MINNESOTA  *****

CITY           SKY/WX    TMP DP  RH WIND       PRES   REMARKS
FOSSTON        LGT SNOW  25  23  93 N20       29.73S VSB 1   WCI  11
BEMIDJI        FLURRIES  26  23  87 N9        29.69S WCI  17
PARK RAPIDS    LGT SNOW  28  21  75 N14G21    29.65F WCI  17
ELBOW LAKE     CLOUDY    32  28  86 N13       29.66S WCI  22
WADENA         MIX PCPN  27  25  93 N7        29.64F WCI  19
DETROIT LAKES  LGT SNOW  30  27  86 NE7       29.68F WCI  23
MOORHEAD       LGT RAIN  27  25  93 N9        29.74F WCI  17
FERGUS FALLS   CLOUDY    30  27  86 N9G17     29.68S WCI  22
MORRIS MN      PTSUNNY   34  30  86 N17       29.64S WCI  23
STAPLES        MIX PCPN  28  27  93 CALM      29.63S
$$
  *****  WEATHER ELSEWHERE ACROSS MINNESOTA  *****

CITY           SKY/WX    TMP DP  RH WIND       PRES   REMARKS
DULUTH         LGT SNOW  33  31  92 NE10      29.56F VSB 3/4 WCI  25
INTRNTL FALLS  SNOW      25  20  81 NE15G28   29.74F VSB 1/2 WCI  13
ELY            LGT SNOW  25  23  93 N9G20     29.63S WCI  15
CLOQUET        LGT SNOW  32  30  93 CALM      29.57S VSB 1
WHEATON        CLOUDY    30  27  86 N16G25    29.71S FOG     WCI  19
BRAINERD       CLOUDY    31  29  92 N13       29.62S WCI  21
HIBBING        MIX PCPN  27  25  92 N12       29.62F FOG     WCI  17
ALEXANDRIA     CLOUDY    31  29  92 N13       29.63F WCI  21
SAINT CLOUD    CLOUDY    34  32  92 N10G23    29.58R
MINNEAPOLIS    CLOUDY    38  33  82 N12       29.53R
$$

  *****  WEATHER ACROSS SOUTH DAKOTA  *****

CITY           SKY/WX    TMP DP  RH WIND       PRES   REMARKS
SIOUX FALLS    CLOUDY    37  32  82 NW22G29   29.65F
BROOKINGS      CLOUDY    33  28  81 N21       29.64F WCI  21
WATERTOWN      CLOUDY    31  27  85 N22G28    29.67S WCI  18
HURON          CLOUDY    34  26  72 N25G31    29.74F WCI  21
SISSETON         N/A     31  28  89 N24G30    29.69F WCI  17
ABERDEEN       LGT SNOW  30  26  85 N15       29.77F VSB 1   WCI  19
MITCHELL       CLOUDY    35  28  75 N25G36    29.75S WCI  23
PIERRE         CLOUDY    40  27  59 N22G30    29.79F
MOBRIDGE       CLOUDY    36  24  62 N14       29.78F
RAPID CITY     CLOUDY    32  24  72 N12       29.84F WCI  23
$$

  *****  SOME WEATHER IN NEARBY STATES *****

CITY           SKY/WX    TMP DP  RH WIND       PRES   REMARKS
GLASGOW MT     CLOUDY    41  24  51 S13       29.85F
GREAT FALLS MT CLOUDY    47  36  65 SW18      29.68F
CHEYENNE WY    PTSUNNY   47  24  40 NW22G30   29.77F
SCOTTSBLUFF NE FAIR      45  30  55 CALM      29.79F
OMAHA NE       CLOUDY    41  33  73 NW18      29.69R
DES MOINES IA  CLOUDY    48  39  71 NW16G25   29.58R
DAVENPORT IA   CLOUDY    54  51  90 W18       29.51R
CHICAGO IL     CLOUDY    72  56  57 SW17G31   29.45R
EAU CLAIRE WI  CLOUDY    39  37  92 NW7G17    29.45R FOG
LA CROSSE WI   LGT RAIN  50  48  93 NW15      29.40R
$$

  *****  SOME NATIONAL WEATHER *****

CITY           SKY/WX    TMP DP  RH WIND       PRES   REMARKS
LA GUARDIA NY  CLOUDY    58  53  84 NE9       29.77S
RALEIGH NC     PTSUNNY   74  62  66 SW12      29.83F
ATLANTA GA     FAIR      75  56  51 S7        29.84F
NEW ORLEANS LA PTSUNNY   80  66  62 S17G30    29.72F
OKLAHOMA CITY  NOT AVBL
ALBUQUERQUE NM FAIR      52  33  48 SW8       29.95S
SALT LAKE CITY PTSUNNY   52  36  54 S10       29.90S
LOS ANGELES CA PTSUNNY   70  53  54 SW12      29.90F
BOISE ID       CLOUDY    52  42  69 SE6       29.79F
SEATTLE WA     PTSUNNY   50  46  86 S17G26    29.81R
$$

*** WEATHER ACROSS MANITOBA...SASKATCHEWAN AND ONTARIO ***
                ***ONTARIO***

CITY           SKY/WX    TMP DP  RH WIND       PRES   REMARKS
GERALDTON      LGTSLEET  14   9  79 NE18G31   29.89F VSB 1   WCI  -3
THUNDER BAY    FRZ RAIN  27  23  86 NE10      29.68F WCI  17
SIOUX LOOKOUT  FLURRIES  23  14  68 NE12G25   29.90F WCI  12
TORONTO        CLOUDY    57  52  82 E9        29.78F
BIG TROUT LK   SUNNY     23   1  39 E8        30.26F WCI  14
PICKLE LAKE    CLOUDY    19   9  63 NE12G26   30.05F WCI   7
DRYDEN         CLOUDY    25  18  74 NE24G37   29.84F WCI   9
KENORA         CLOUDY    27  18  69 NE16G25   29.86F WCI  14
$$
                *** MANITOBA***

CITY           SKY/WX    TMP DP  RH WIND       PRES   REMARKS
BRANDON        PTSUNNY   36  19  51 NE21G28   29.94F
DAUPHIN        SUNNY     37  16  41 NE14      30.03F
ISLAND LAKE    MOSUNNY   28   9  43 SE14      30.20F WCI  17
PILOT MOUND      N/A     36  23  60 NE18G24     N/A
THE PAS        MOSUNNY   34   7  32 SE12G18   30.13F
THOMPSON       SUNNY     28   0  29 S5        30.21F WCI  23
WINNIPEG       PTSUNNY   36  21  55 NE21G30   29.92F
LYNN LAKE      SUNNY     32   7  34 SE12      30.12F WCI  23
CHURCHILL      MOSUNNY   27   9  46 SW16G23   30.20F WCI  14
GILLAM         SUNNY     32   3  29 VRB2      30.27F
$$
                ***SASKATCHEWAN***

CITY           SKY/WX    TMP DP  RH WIND       PRES   REMARKS
ESTEVAN        MOSUNNY   39  21  48 E10G21    29.92F
KINDERSLEY     CLOUDY    36  30  80 SE17      29.78F
LLOYDMINSTER   LGT SNOW  30  30 100 E15       29.83F WCI  19
PRINCE ALBERT  CLOUDY    37  19  48 SE8       30.00F
REGINA         PTSUNNY   36  19  51 SE10      29.93F
YORKTON        SUNNY     37  14  38 E10       29.99F
N. BATTLEFORD  FLURRIES  32  32 100 SE17G26   29.90F WCI  21
LA RONGE       MOSUNNY   37  12  35 E9        30.04F
SASKATOON      FLURRIES  36  28  75 SE17G25   29.94F
SWIFT CURRENT  CLOUDY    39  28  65 SE20G26   29.79F
$$
NOTE: THESE ARE AUTOMATED STATIONS WITH LIMITED QUALITY CONTROL
      "FAIR" INDICATES FEW OR NO CLOUDS BELOW 12,000 FEET WITH NO
      SIGNIFICANT WEATHER AND/OR OBSTRUCTIONS TO VISIBILITY.
      SKY/WX - SKY CONDITION AND SIGNIFICANT WEATHER.
      TMP - AIR TEMPERATURE.    DP   - DEWPOINT TEMPERATURE.
      RH  - RELATIVE HUMIDITY.  PRES - PRESSURE.
      HX  - HEAT INDEX.         WCI  - WIND CHILL INDEX.
$




USA.gov is the U.S. government's official web portal to all federal, state and local government web resources and services.